This is the latest recevied weather packets stored in our database for station/object LU3HGB-WX. If no packets are shown the sender has not sent any weather packets the latest 10 day(s).
| Time | Temp. | Humidity | Pressure | Rain* | Wind** | Luminosity | Snow |
|---|---|---|---|---|---|---|---|
| 1777494460 | 21.67° C | 44% | 1015 hPa | 0 mm | - | 182 W/m² | - |
| 1777494159 | 21.67° C | 43% | 1015 hPa | 0 mm | - | 197 W/m² | - |
| 1777493859 | 21.67° C | 42% | 1015 hPa | 0 mm | - | 213 W/m² | - |
| 1777493560 | 21.67° C | 43% | 1015 hPa | 0 mm | - | 231 W/m² | - |
| 1777493260 | 21.67° C | 45% | 1015 hPa | 0 mm | - | 251 W/m² | - |
| 1777492959 | 21.11° C | 42% | 1015 hPa | 0 mm | - | 264 W/m² | - |
| 1777492659 | 21.11° C | 44% | 1015 hPa | 0 mm | - | 282 W/m² | - |
| 1777492359 | 21.67° C | 44% | 1015 hPa | 0 mm | - | 297 W/m² | - |
| 1777492061 | 21.67° C | 43% | 1015 hPa | 0 mm | - | 314 W/m² | - |
| 1777491759 | 21.67° C | 40% | 1015 hPa | 0 mm | - | 331 W/m² | - |
| 1777491459 | 21.67° C | 42% | 1015 hPa | 0 mm | - | 351 W/m² | - |
| 1777491159 | 21.67° C | 42% | 1015 hPa | 0 mm | - | 365 W/m² | - |
| 1777490861 | 21.11° C | 44% | 1015 hPa | 0 mm | - | 381 W/m² | - |
| 1777490559 | 21.11° C | 46% | 1015 hPa | 0 mm | - | 397 W/m² | - |
| 1777490264 | 21.11° C | 46% | 1015 hPa | 0 mm | - | 413 W/m² | - |
| 1777489961 | 21.11° C | 43% | 1015 hPa | 0 mm | - | 429 W/m² | - |
| 1777489659 | 21.11° C | 47% | 1015 hPa | 0 mm | - | 446 W/m² | - |
| 1777489360 | 21.11° C | 43% | 1015 hPa | 0 mm | - | 460 W/m² | - |
| 1777489060 | 21.11° C | 46% | 1016 hPa | 0 mm | - | 474 W/m² | - |
| 1777488760 | 21.11° C | 43% | 1016 hPa | 0 mm | - | 489 W/m² | - |
| 1777488459 | 21.11° C | 43% | 1016 hPa | 0 mm | - | 504 W/m² | - |
| 1777488160 | 21.67° C | 46% | 1016 hPa | 0 mm | - | 517 W/m² | - |
| 1777487860 | 21.11° C | 45% | 1016 hPa | 0 mm | - | 533 W/m² | - |
| 1777487560 | 21.11° C | 46% | 1016 hPa | 0 mm | - | 543 W/m² | - |
| 1777487260 | 21.11° C | 46% | 1016 hPa | 0 mm | - | 556 W/m² | - |
* Rain latest hour (hover to see other rain measurements)
** Current wind speed in m/s (hover to see current wind gust speed)